Location: Unspecified
(0.0000°N, 0.0000°E)
Time: 11:05:36
(UTC+01:00)

Vanguard 1 - Visible Passes

Search period start: 31 January 2015 00:00
Search period end: 10 February 2015 00:00
Orbit: 653 x 3833 km, 34.2° (Epoch: 28 January)

Date Brightness Start Highest point End Pass type
(mag) Time Alt. Az. Time Alt. Az. Time Alt. Az.
31 Jan 13.2 02:12:59 10° SW 02:48:55 34° ENE 02:55:37 10° NE visible
31 Jan 12.6 05:01:47 42° NW 05:03:25 42° NW 05:16:27 10° NNE visible
31 Jan 13.8 21:49:12 10° SSW 21:59:55 19° SSE 22:12:01 13° ESE visible
01 Feb 13.3 00:10:30 10° SW 00:24:38 42° S 00:24:38 42° S visible
01 Feb 13.1 02:35:04 10° SW 03:10:02 37° NE 03:17:17 10° NE visible
01 Feb 12.8 05:22:51 31° NW 05:25:30 32° NW 05:37:15 10° NNE visible
01 Feb 13.6 22:10:26 10° SSW 22:23:16 24° SSE 22:30:50 21° SE visible
02 Feb 13.3 00:31:54 10° SW 01:18:05 - ENE 00:43:28 40° SSW visible
02 Feb 13.0 03:30:53 38° NNE 03:30:53 38° NNE 03:38:42 10° NE visible
02 Feb 13.0 05:43:41 23° NW 05:47:49 24° NNW 05:57:53 10° NNE visible
02 Feb 13.8 20:13:31 10° S 20:16:20 11° SSE 20:20:19 10° SSE visible
02 Feb 13.4 22:31:34 10° SSW 22:46:20 31° SSE 22:49:49 30° SE visible
03 Feb 13.4 00:53:26 10° SW 01:38:46 - ENE 01:02:28 35° SW visible
03 Feb 12.9 03:51:33 37° NNE 03:51:33 37° NNE 03:59:56 10° NE visible
03 Feb 13.1 06:04:21 16° NW 06:10:23 18° NNW 06:18:18 10° N visible
03 Feb 13.7 20:33:52 10° S 20:39:43 13° SSE 20:48:03 10° SE visible
03 Feb 13.2 22:52:41 10° SSW 23:08:56 38° SSE 23:08:56 38° SSE visible
04 Feb 13.6 01:15:08 10° SW 01:59:17 10° NE 01:21:35 27° SW visible
04 Feb 13.0 04:12:04 35° N 04:12:04 35° N 04:21:01 10° NNE visible
04 Feb 13.3 06:25:45 10° NW 06:33:12 13° NNW 06:38:14 10° N visible
04 Feb 13.6 20:54:29 10° S 21:02:56 17° SSE 21:15:15 10° ESE visible
04 Feb 13.1 23:13:51 10° SW 23:28:10 45° SSE 23:28:10 45° SSE visible
05 Feb 13.8 01:37:06 10° WSW 02:19:41 13° NE 02:20:52 10° NE visible
05 Feb 13.0 04:32:27 31° NNW 04:32:27 31° NNW 04:42:00 10° NNE visible
05 Feb 13.5 21:15:12 10° SSW 21:25:54 23° SSE 21:34:50 18° ESE visible
05 Feb 13.0 23:35:06 10° SW 23:47:30 48° S 23:47:30 48° S visible
06 Feb 13.7 01:59:25 10° WSW 02:39:58 17° NE 02:42:23 10° NE visible
06 Feb 13.2 04:52:43 26° NNW 04:52:43 26° NNW 05:02:53 10° NNE visible
06 Feb 13.3 21:36:00 10° SSW 21:48:37 29° SSE 21:54:16 27° SE visible
06 Feb 13.1 23:56:30 10° SW 00:06:57 45° SSW 00:06:57 45° SSW visible
07 Feb 13.6 03:00:09 20° NNE 03:00:09 20° NNE 03:03:44 10° NE visible
07 Feb 13.3 05:12:54 20° NNW 05:13:35 20° NNW 05:23:44 10° NNE visible
07 Feb 13.6 19:42:15 10° SSE 19:43:31 10° SSE 19:46:06 10° SSE visible
07 Feb 13.1 21:56:53 10° SSW 22:11:05 38° SE 22:13:48 37° SE visible
08 Feb 13.3 00:18:05 10° SW 00:26:29 37° SW 00:26:29 37° SW visible
08 Feb 13.5 03:20:15 22° NNE 03:20:15 22° NNE 03:24:58 10° NNE visible
08 Feb 13.4 05:32:59 15° NW 05:36:45 16° NNW 05:44:33 10° N visible
08 Feb 13.5 20:00:28 10° S 20:06:25 14° SSE 20:15:20 10° ESE visible
08 Feb 12.8 22:17:52 10° SSW 22:33:20 48° SE 22:33:24 48° SE visible
09 Feb 13.5 00:39:57 10° WSW 01:27:33 - NE 00:46:06 29° WSW visible
09 Feb 13.5 03:40:17 23° N 03:40:17 23° N 03:46:08 10° NNE visible
09 Feb 13.5 05:53:01 10° NW 06:00:06 13° NNW 06:05:25 10° N visible
09 Feb 13.3 20:20:32 10° S 20:29:03 20° SSE 20:40:24 12° ESE visible
09 Feb 12.7 22:39:00 10° SW 22:53:06 58° SSE 22:53:06 58° SSE visible
